{"data":{"norad_id":62918,"epoch":"2026-05-24T23:39:37.325952Z","epoch_age_seconds":86738,"freshness":"FRESH","line1":"1 62918U 25027M   26144.98584868  .00162715  00000+0  12450-2 0  9990","line2":"2 62918  43.0027 247.5802 0001997  45.6346 314.4685 15.70876033 75199","mean_motion":15.70876033,"eccentricity":0.0001997,"inclination_deg":43.0027,"raan_deg":247.5802,"arg_perigee_deg":45.6346,"mean_anomaly_deg":314.4685,"bstar":0.001245,"rev_number":7519,"period_min":91.668595722983,"perigee_km":355.04718902335,"apogee_km":357.7369599357,"semimajor_km":6734.5290744795,"source":"CELESTRAK","updated_at":"2026-05-25T13:38:19.821497Z"}}